{"data":{"norad_id":59573,"epoch":"2026-09-21T12:27:27.695520Z","epoch_age_seconds":80168,"freshness":"FRESH","line1":"1 59573U 24076K   26264.51907055 -.00002464  00000+0 -80009-4 0  9998","line2":"2 59573  42.9997 342.9355 0001191 290.1140  69.9583 15.27592752136455","mean_motion":15.27592752,"eccentricity":0.0001191,"inclination_deg":42.9997,"raan_deg":342.9355,"arg_perigee_deg":290.114,"mean_anomaly_deg":69.9583,"bstar":-8.0009e-5,"rev_number":13645,"period_min":94.26596179608,"perigee_km":482.19374951343,"apogee_km":483.82807494612,"semimajor_km":6861.1479122298,"source":"CELESTRAK","updated_at":"2026-09-22T09:00:49.002348Z"}}